TimeEST,TemperatureF,Dew PointF,Humidity,Sea Level PressureIn,VisibilityMPH,Wind Direction,Wind SpeedMPH,Gust SpeedMPH,PrecipitationIn,Events,Conditions,WindDirDegrees,DateUTC
12:54 AM,27.0,24.1,89,30.08,10.0,NNW,6.9,-,N/A,,Clear,340,2012-12-28 05:54:00
1:54 AM,27.0,25.0,92,30.08,10.0,NNW,3.5,-,N/A,,Clear,340,2012-12-28 06:54:00
2:54 AM,26.1,24.1,92,30.09,10.0,Calm,Calm,-,N/A,,Clear,0,2012-12-28 07:54:00
3:54 AM,27.0,25.0,92,30.09,10.0,Calm,Calm,-,N/A,,Clear,0,2012-12-28 08:54:00
4:54 AM,26.1,24.1,92,30.10,10.0,Calm,Calm,-,N/A,,Clear,0,2012-12-28 09:54:00
5:13 AM,26.6,24.8,93,30.06,9.0,Calm,Calm,-,N/A,,Scattered Clouds,0,2012-12-28 10:13:00
5:22 AM,26.6,24.8,93,30.06,9.0,Calm,Calm,-,N/A,,Mostly Cloudy,0,2012-12-28 10:22:00
5:54 AM,26.1,24.1,92,30.10,10.0,Calm,Calm,-,N/A,,Overcast,0,2012-12-28 10:54:00
6:34 AM,26.6,24.8,93,30.05,7.0,Calm,Calm,-,N/A,,Partly Cloudy,0,2012-12-28 11:34:00
6:54 AM,26.1,25.0,96,30.11,7.0,Calm,Calm,-,N/A,,Partly Cloudy,0,2012-12-28 11:54:00
7:54 AM,27.0,25.0,92,30.12,9.0,ESE,3.5,-,N/A,,Overcast,120,2012-12-28 12:54:00
8:54 AM,28.0,25.0,88,30.12,10.0,SE,4.6,-,N/A,,Overcast,130,2012-12-28 13:54:00
9:54 AM,30.9,28.0,89,30.13,9.0,Calm,Calm,-,N/A,,Overcast,0,2012-12-28 14:54:00
10:54 AM,35.1,28.0,76,30.14,10.0,SSE,6.9,-,N/A,,Mostly Cloudy,150,2012-12-28 15:54:00
11:54 AM,39.0,28.9,67,30.10,10.0,South,5.8,-,N/A,,Clear,170,2012-12-28 16:54:00
12:54 PM,41.0,30.0,65,30.05,10.0,SSW,3.5,-,N/A,,Clear,210,2012-12-28 17:54:00
1:54 PM,43.0,30.0,60,30.01,10.0,Calm,Calm,-,N/A,,Mostly Cloudy,0,2012-12-28 18:54:00
2:54 PM,44.1,30.0,58,30.00,10.0,SSE,3.5,-,N/A,,Overcast,150,2012-12-28 19:54:00
3:54 PM,43.0,30.0,60,29.99,10.0,South,9.2,-,N/A,,Overcast,170,2012-12-28 20:54:00
4:54 PM,41.0,28.9,62,29.99,10.0,South,8.1,-,N/A,,Overcast,170,2012-12-28 21:54:00
5:54 PM,39.0,28.9,67,29.99,10.0,SSE,6.9,-,N/A,,Partly Cloudy,160,2012-12-28 22:54:00
6:54 PM,37.9,28.0,68,30.02,10.0,SSE,6.9,-,N/A,,Overcast,150,2012-12-28 23:54:00
7:54 PM,37.0,28.0,70,30.00,10.0,SE,6.9,-,N/A,,Overcast,140,2012-12-29 00:54:00
8:54 PM,37.0,28.0,70,29.97,10.0,SE,6.9,-,N/A,,Mostly Cloudy,130,2012-12-29 01:54:00
9:54 PM,36.0,28.9,76,29.98,10.0,SSE,5.8,-,0.00,Rain,Light Rain,150,2012-12-29 02:54:00
10:54 PM,35.1,30.9,85,29.96,9.0,SE,4.6,-,0.02,Rain,Light Rain,130,2012-12-29 03:54:00
11:54 PM,34.0,33.1,96,29.94,6.0,SSE,4.6,-,0.06,Rain,Rain,160,2012-12-29 04:54:00